EZS72YG LSGG-EGKK

Flight info

Callsign EZS72YG
Flight time 1h 11m
Altitude 38000
Route DIPIR T37 IBABA DCT TUTAX DCT OBURO DCT OKRIX DCT CLM DCT KOPOR DCT KESAX DCT KUNAV KUNAV1G
Aircraft A320/M-SDE2E3FGHIJ1RWXYZ/LB1

Departure

Time 2026-05-06 11:04
Airport Geneva International Airport (LSGG)

Arrival

Time 2026-05-06 12:15
Airport London Gatwick Airport (EGKK)
Time Latitude Longitude Altitude Speed Heading
2026-05-06 10:05 46.23106 6.10327 1393 ft 0 kts 270°
2026-05-06 10:06 46.23106 6.10325 1393 ft 0 kts 270°
2026-05-06 10:57 46.23106 6.10316 1393 ft 4 kts 270°
2026-05-06 10:57 46.23117 6.10262 1396 ft 6 kts 310°
2026-05-06 10:57 46.23153 6.10281 1401 ft 8 kts 46°
2026-05-06 10:57 46.23209 6.10365 1395 ft 15 kts 46°
2026-05-06 10:58 46.23294 6.10489 1398 ft 19 kts 44°
2026-05-06 10:58 46.23395 6.10631 1394 ft 21 kts 42°
2026-05-06 10:58 46.23502 6.10781 1388 ft 23 kts 44°
2026-05-06 10:58 46.23597 6.10921 1389 ft 19 kts 45°
2026-05-06 10:59 46.23694 6.11061 1386 ft 21 kts 45°
2026-05-06 10:59 46.23777 6.11186 1380 ft 14 kts 45°
2026-05-06 10:59 46.23851 6.11295 1374 ft 16 kts 45°
2026-05-06 10:59 46.23932 6.11413 1374 ft 17 kts 45°
2026-05-06 11:00 46.24023 6.11548 1370 ft 21 kts 45°
2026-05-06 11:00 46.24137 6.11714 1366 ft 26 kts 46°
2026-05-06 11:00 46.24261 6.11897 1362 ft 19 kts 46°
2026-05-06 11:00 46.24349 6.12026 1365 ft 17 kts 45°
2026-05-06 11:01 46.24420 6.12129 1369 ft 12 kts 45°
2026-05-06 11:01 46.24482 6.12220 1372 ft 15 kts 45°
2026-05-06 11:01 46.24572 6.12354 1371 ft 22 kts 46°
2026-05-06 11:01 46.24690 6.12526 1364 ft 27 kts 45°
2026-05-06 11:02 46.24792 6.12662 1362 ft 14 kts 29°
2026-05-06 11:02 46.24845 6.12688 1364 ft 0 kts 17°
2026-05-06 11:02 46.24846 6.12688 1364 ft 2 kts 17°
2026-05-06 11:02 46.24889 6.12707 1365 ft 11 kts 17°
2026-05-06 11:03 46.24981 6.12738 1369 ft 15 kts 356°
2026-05-06 11:03 46.25016 6.12670 1372 ft 8 kts 236°
2026-05-06 11:03 46.24910 6.12516 1372 ft 53 kts 225°
2026-05-06 11:03 46.24472 6.11874 1372 ft 122 kts 225°
2026-05-06 11:04 46.23760 6.10834 1527 ft 158 kts 226°
2026-05-06 11:04 46.23009 6.09708 2340 ft 154 kts 226°
2026-05-06 11:04 46.22266 6.08598 3217 ft 154 kts 226°
2026-05-06 11:04 46.21515 6.07497 3918 ft 154 kts 226°
2026-05-06 11:05 46.20760 6.06399 4618 ft 153 kts 226°
2026-05-06 11:05 46.20006 6.05307 5252 ft 156 kts 226°
2026-05-06 11:05 46.19196 6.04121 5599 ft 177 kts 226°
2026-05-06 11:05 46.18272 6.02771 5896 ft 200 kts 226°
2026-05-06 11:06 46.17233 6.01253 6247 ft 225 kts 226°
2026-05-06 11:06 46.16074 5.99559 6700 ft 249 kts 226°
2026-05-06 11:06 46.14907 5.97623 7392 ft 261 kts 238°
2026-05-06 11:06 46.14256 5.95169 8273 ft 265 kts 263°
2026-05-06 11:07 46.14403 5.92522 9214 ft 270 kts 287°
2026-05-06 11:07 46.15400 5.90194 10076 ft 281 kts 313°
2026-05-06 11:07 46.17105 5.88698 10743 ft 299 kts 335°
2026-05-06 11:07 46.19090 5.87556 11060 ft 322 kts 335°
2026-05-06 11:08 46.21173 5.86249 11782 ft 329 kts 333°
2026-05-06 11:08 46.23275 5.84870 12621 ft 335 kts 333°
2026-05-06 11:08 46.25411 5.83445 13439 ft 341 kts 333°
2026-05-06 11:08 46.27584 5.81994 14196 ft 346 kts 333°
2026-05-06 11:09 46.29786 5.80527 14925 ft 351 kts 333°
2026-05-06 11:09 46.32021 5.79044 15649 ft 355 kts 333°
2026-05-06 11:09 46.34277 5.77556 16374 ft 358 kts 333°
2026-05-06 11:09 46.36563 5.76052 17078 ft 363 kts 334°
2026-05-06 11:10 46.38871 5.74532 17778 ft 367 kts 334°
2026-05-06 11:10 46.41218 5.72990 18416 ft 373 kts 334°
2026-05-06 11:10 46.43584 5.71432 19032 ft 375 kts 334°
2026-05-06 11:10 46.45974 5.69855 19626 ft 379 kts 335°
2026-05-06 11:11 46.48391 5.68264 20223 ft 383 kts 335°
2026-05-06 11:11 46.50833 5.66653 20808 ft 387 kts 335°
2026-05-06 11:11 46.53295 5.65027 21386 ft 391 kts 335°
2026-05-06 11:11 46.55777 5.63370 22015 ft 393 kts 333°
2026-05-06 11:12 46.58078 5.61221 22580 ft 396 kts 323°
2026-05-06 11:12 46.60318 5.58860 23123 ft 399 kts 323°
2026-05-06 11:12 46.62569 5.56465 23629 ft 403 kts 323°
2026-05-06 11:12 46.64841 5.54030 24102 ft 408 kts 323°
2026-05-06 11:13 46.67133 5.51575 24578 ft 410 kts 323°
2026-05-06 11:13 46.69440 5.49103 25122 ft 413 kts 323°
2026-05-06 11:13 46.71770 5.46607 25730 ft 419 kts 323°
2026-05-06 11:13 46.74135 5.44077 26276 ft 424 kts 323°
2026-05-06 11:14 46.76519 5.41523 26735 ft 426 kts 323°
2026-05-06 11:14 46.78909 5.38957 27127 ft 428 kts 323°
2026-05-06 11:14 46.81320 5.36366 27557 ft 432 kts 323°
2026-05-06 11:14 46.83750 5.33751 28032 ft 436 kts 323°
2026-05-06 11:15 46.86200 5.31105 28469 ft 440 kts 323°
2026-05-06 11:15 46.88674 5.28432 28866 ft 444 kts 324°
2026-05-06 11:15 46.91175 5.25733 29272 ft 449 kts 324°
2026-05-06 11:15 46.93588 5.22808 29700 ft 453 kts 318°
2026-05-06 11:16 46.95936 5.19711 30087 ft 456 kts 318°
2026-05-06 11:16 46.98297 5.16584 30426 ft 459 kts 318°
2026-05-06 11:16 47.00666 5.13446 30791 ft 460 kts 317°
2026-05-06 11:16 47.03042 5.10296 31142 ft 461 kts 317°
2026-05-06 11:17 47.05423 5.07138 31494 ft 461 kts 317°
2026-05-06 11:17 47.07765 5.04024 31957 ft 459 kts 316°
2026-05-06 11:17 47.10125 5.00874 32413 ft 457 kts 316°
2026-05-06 11:17 47.12474 4.97729 32891 ft 455 kts 315°
2026-05-06 11:18 47.14810 4.94608 33416 ft 452 kts 315°
2026-05-06 11:18 47.17137 4.91501 33913 ft 450 kts 316°
2026-05-06 11:18 47.19447 4.88418 34308 ft 448 kts 315°
2026-05-06 11:18 47.21747 4.85343 34663 ft 447 kts 315°
2026-05-06 11:19 47.24043 4.82269 34992 ft 446 kts 315°
2026-05-06 11:19 47.26334 4.79196 35308 ft 445 kts 315°
2026-05-06 11:19 47.28619 4.76118 35617 ft 445 kts 315°
2026-05-06 11:19 47.30902 4.73042 35914 ft 445 kts 315°
2026-05-06 11:20 47.33185 4.69966 36209 ft 445 kts 315°
2026-05-06 11:20 47.35469 4.66890 36483 ft 445 kts 315°
2026-05-06 11:20 47.37752 4.63817 36756 ft 444 kts 315°
2026-05-06 11:20 47.40031 4.60732 37030 ft 444 kts 315°
2026-05-06 11:21 47.42306 4.57646 37317 ft 444 kts 315°
2026-05-06 11:21 47.44553 4.54596 37589 ft 443 kts 315°
2026-05-06 11:21 47.46825 4.51514 37809 ft 445 kts 315°
2026-05-06 11:22 47.51403 4.45295 37866 ft 448 kts 315°
2026-05-06 11:22 47.55991 4.39036 37860 ft 449 kts 315°
2026-05-06 11:23 47.60585 4.32752 37862 ft 449 kts 315°
2026-05-06 11:23 47.65080 4.26340 37860 ft 447 kts 307°
2026-05-06 11:24 47.68661 4.18860 37881 ft 444 kts 301°
2026-05-06 11:24 47.72120 4.11245 37881 ft 445 kts 302°
2026-05-06 11:25 47.75577 4.03624 37877 ft 444 kts 302°
2026-05-06 11:25 47.79027 3.95993 37876 ft 444 kts 302°
2026-05-06 11:26 47.82466 3.88350 37886 ft 445 kts 301°
2026-05-06 11:26 47.85903 3.80705 37880 ft 444 kts 301°
2026-05-06 11:27 47.89334 3.73057 37881 ft 444 kts 301°
2026-05-06 11:27 47.92764 3.65395 37896 ft 444 kts 301°
2026-05-06 11:28 47.96670 3.58270 37899 ft 448 kts 317°
2026-05-06 11:28 47.99178 3.55503 37897 ft 450 kts 328°
2026-05-06 11:28 48.01983 3.53417 37906 ft 451 kts 336°
2026-05-06 11:29 48.07806 3.49837 37884 ft 453 kts 336°
2026-05-06 11:29 48.13624 3.46204 37884 ft 452 kts 335°
2026-05-06 11:30 48.19432 3.42564 37888 ft 453 kts 336°
2026-05-06 11:30 48.25254 3.38928 37896 ft 453 kts 336°
2026-05-06 11:31 48.31075 3.35288 37906 ft 454 kts 336°
2026-05-06 11:31 48.36894 3.31636 37897 ft 453 kts 336°
2026-05-06 11:32 48.42715 3.27964 37900 ft 453 kts 335°
2026-05-06 11:32 48.48494 3.24308 37920 ft 453 kts 335°
2026-05-06 11:33 48.54317 3.20621 37917 ft 454 kts 335°
2026-05-06 11:33 48.60138 3.16934 37915 ft 454 kts 335°
2026-05-06 11:34 48.65961 3.13232 37908 ft 453 kts 335°
2026-05-06 11:34 48.70835 3.10118 37914 ft 454 kts 335°
2026-05-06 11:35 48.76650 3.06400 37925 ft 454 kts 335°
2026-05-06 11:35 48.82419 3.02699 37932 ft 453 kts 335°
2026-05-06 11:36 48.87988 2.98326 37926 ft 450 kts 328°
2026-05-06 11:36 48.93409 2.93582 37929 ft 449 kts 328°
2026-05-06 11:37 48.98868 2.88808 37924 ft 449 kts 328°
2026-05-06 11:37 49.04240 2.84091 37932 ft 449 kts 328°
2026-05-06 11:38 49.09646 2.79323 37943 ft 449 kts 328°
2026-05-06 11:38 49.15046 2.74551 37934 ft 448 kts 328°
2026-05-06 11:39 49.20442 2.69789 37925 ft 448 kts 328°
2026-05-06 11:39 49.25840 2.65008 37931 ft 448 kts 328°
2026-05-06 11:40 49.31227 2.60212 37919 ft 448 kts 328°
2026-05-06 11:40 49.36583 2.55439 37911 ft 448 kts 328°
2026-05-06 11:41 49.41965 2.50630 37909 ft 448 kts 328°
2026-05-06 11:41 49.47344 2.45801 37908 ft 448 kts 328°
2026-05-06 11:42 49.52567 2.40627 37910 ft 445 kts 317°
2026-05-06 11:42 49.57256 2.34405 37907 ft 445 kts 317°
2026-05-06 11:43 49.61958 2.28176 37909 ft 446 kts 317°
2026-05-06 11:43 49.66662 2.21930 37750 ft 447 kts 317°
2026-05-06 11:44 49.71347 2.15674 37212 ft 444 kts 317°
2026-05-06 11:44 49.73680 2.12547 36951 ft 444 kts 317°
2026-05-06 11:44 49.76016 2.09418 36691 ft 443 kts 317°
2026-05-06 11:44 49.78345 2.06295 36436 ft 442 kts 318°
2026-05-06 11:45 49.80666 2.03174 36179 ft 442 kts 318°
2026-05-06 11:45 49.82988 2.00049 35927 ft 442 kts 318°
2026-05-06 11:45 49.85303 1.96929 35685 ft 441 kts 318°
2026-05-06 11:45 49.87613 1.93815 35441 ft 439 kts 318°
2026-05-06 11:46 49.89912 1.90716 35099 ft 436 kts 319°
2026-05-06 11:46 49.92190 1.87639 34555 ft 433 kts 319°
2026-05-06 11:46 49.94456 1.84573 34008 ft 431 kts 319°
2026-05-06 11:46 49.96709 1.81520 33417 ft 429 kts 319°
2026-05-06 11:47 49.98939 1.78488 32906 ft 424 kts 319°
2026-05-06 11:47 50.01147 1.75484 32376 ft 420 kts 319°
2026-05-06 11:47 50.03336 1.72501 31852 ft 416 kts 319°
2026-05-06 11:47 50.05499 1.69555 31338 ft 412 kts 319°
2026-05-06 11:48 50.07646 1.66628 30829 ft 409 kts 319°
2026-05-06 11:48 50.09778 1.63734 30337 ft 405 kts 320°
2026-05-06 11:48 50.11899 1.60863 29817 ft 402 kts 319°
2026-05-06 11:48 50.14002 1.58018 29319 ft 397 kts 320°
2026-05-06 11:49 50.16070 1.55216 28844 ft 392 kts 319°
2026-05-06 11:49 50.18084 1.52486 28406 ft 386 kts 319°
2026-05-06 11:49 50.20100 1.49749 27960 ft 381 kts 319°
2026-05-06 11:49 50.22085 1.47039 27517 ft 377 kts 318°
2026-05-06 11:50 50.24046 1.44358 27089 ft 373 kts 319°
2026-05-06 11:50 50.25988 1.41710 26652 ft 368 kts 318°
2026-05-06 11:50 50.27906 1.39088 26210 ft 365 kts 318°
2026-05-06 11:50 50.29804 1.36484 25775 ft 361 kts 318°
2026-05-06 11:51 50.31690 1.33897 25317 ft 358 kts 317°
2026-05-06 11:51 50.33555 1.31337 24854 ft 355 kts 318°
2026-05-06 11:51 50.35408 1.28791 24400 ft 354 kts 317°
2026-05-06 11:51 50.37257 1.26246 23932 ft 353 kts 317°
2026-05-06 11:52 50.39097 1.23709 23455 ft 352 kts 317°
2026-05-06 11:52 50.40934 1.21171 22933 ft 350 kts 317°
2026-05-06 11:52 50.42755 1.18653 22467 ft 348 kts 317°
2026-05-06 11:52 50.44568 1.16147 22011 ft 346 kts 317°
2026-05-06 11:53 50.46370 1.13651 21556 ft 344 kts 317°
2026-05-06 11:53 50.48161 1.11174 21109 ft 342 kts 317°
2026-05-06 11:53 50.49940 1.08712 20678 ft 340 kts 317°
2026-05-06 11:53 50.51687 1.06234 20237 ft 337 kts 314°
2026-05-06 11:54 50.53283 1.03555 19797 ft 335 kts 313°
2026-05-06 11:54 50.54869 1.00888 19365 ft 333 kts 313°
2026-05-06 11:54 50.56446 0.98234 18939 ft 331 kts 313°
2026-05-06 11:54 50.57484 0.96481 18661 ft 330 kts 313°
2026-05-06 11:55 50.59573 0.92953 18069 ft 328 kts 313°
2026-05-06 11:55 50.61125 0.90336 17632 ft 326 kts 312°
2026-05-06 11:55 50.62149 0.88607 17357 ft 324 kts 312°
2026-05-06 11:56 50.65778 0.82461 16394 ft 320 kts 312°
2026-05-06 11:56 50.67286 0.79905 16039 ft 316 kts 311°
2026-05-06 11:56 50.68715 0.77335 15821 ft 309 kts 309°
2026-05-06 11:56 50.70002 0.74853 15435 ft 309 kts 308°
2026-05-06 11:57 50.71332 0.72206 15113 ft 306 kts 307°
2026-05-06 11:57 50.72645 0.69572 14759 ft 305 kts 307°
2026-05-06 11:57 50.73950 0.66960 14439 ft 300 kts 307°
2026-05-06 11:57 50.75236 0.64398 13935 ft 296 kts 307°
2026-05-06 11:58 50.76513 0.61867 13243 ft 293 kts 308°
2026-05-06 11:58 50.77779 0.59370 12543 ft 290 kts 308°
2026-05-06 11:58 50.79038 0.56888 11937 ft 288 kts 309°
2026-05-06 11:58 50.80295 0.54413 11487 ft 290 kts 309°
2026-05-06 11:59 50.81554 0.51933 11147 ft 287 kts 309°
2026-05-06 11:59 50.82787 0.49503 10903 ft 279 kts 309°
2026-05-06 11:59 50.83996 0.47119 10418 ft 277 kts 310°
2026-05-06 11:59 50.85202 0.44737 9960 ft 278 kts 310°
2026-05-06 12:00 50.86412 0.42341 9545 ft 277 kts 310°
2026-05-06 12:00 50.87610 0.39965 9181 ft 275 kts 310°
2026-05-06 12:00 50.88795 0.37615 8805 ft 270 kts 310°
2026-05-06 12:00 50.89962 0.35304 8342 ft 267 kts 310°
2026-05-06 12:01 50.91120 0.33010 7874 ft 264 kts 310°
2026-05-06 12:01 50.92258 0.30747 7416 ft 261 kts 310°
2026-05-06 12:01 50.93387 0.28506 6949 ft 259 kts 310°
2026-05-06 12:01 50.94494 0.26307 6586 ft 256 kts 310°
2026-05-06 12:02 50.95593 0.24099 6212 ft 253 kts 309°
2026-05-06 12:02 50.96674 0.21904 5750 ft 252 kts 310°
2026-05-06 12:02 50.97747 0.19716 5318 ft 252 kts 310°
2026-05-06 12:02 50.98821 0.17525 4918 ft 250 kts 310°
2026-05-06 12:03 50.99889 0.15339 4488 ft 250 kts 310°
2026-05-06 12:03 51.00933 0.13137 4084 ft 251 kts 304°
2026-05-06 12:03 51.01644 0.10577 4003 ft 253 kts 288°
2026-05-06 12:03 51.01890 0.07831 4015 ft 255 kts 277°
2026-05-06 12:04 51.02014 0.05001 4020 ft 259 kts 277°
2026-05-06 12:04 51.02136 0.02141 4002 ft 260 kts 277°
2026-05-06 12:04 51.02258 -0.00722 3997 ft 260 kts 277°
2026-05-06 12:04 51.02379 -0.03581 4005 ft 260 kts 277°
2026-05-06 12:05 51.02502 -0.06442 4015 ft 259 kts 277°
2026-05-06 12:05 51.02623 -0.09286 4009 ft 258 kts 278°
2026-05-06 12:05 51.02744 -0.12132 4008 ft 258 kts 277°
2026-05-06 12:05 51.02864 -0.14975 4013 ft 258 kts 277°
2026-05-06 12:06 51.02982 -0.17817 4017 ft 258 kts 277°
2026-05-06 12:06 51.03102 -0.20655 4009 ft 258 kts 277°
2026-05-06 12:06 51.03219 -0.23498 4006 ft 258 kts 277°
2026-05-06 12:06 51.03333 -0.26332 4012 ft 258 kts 277°
2026-05-06 12:07 51.03448 -0.29177 4014 ft 258 kts 277°
2026-05-06 12:07 51.03564 -0.32022 4007 ft 259 kts 277°
2026-05-06 12:07 51.03677 -0.34873 4002 ft 258 kts 277°
2026-05-06 12:07 51.03785 -0.37684 4008 ft 247 kts 277°
2026-05-06 12:08 51.03882 -0.40301 3998 ft 229 kts 277°
2026-05-06 12:08 51.03977 -0.42814 3909 ft 227 kts 277°
2026-05-06 12:08 51.04076 -0.45319 3834 ft 227 kts 277°
2026-05-06 12:08 51.04180 -0.47824 3757 ft 227 kts 278°
2026-05-06 12:09 51.04291 -0.50326 3689 ft 227 kts 281°
2026-05-06 12:09 51.04836 -0.52603 3614 ft 220 kts 311°
2026-05-06 12:09 51.06038 -0.53945 3539 ft 207 kts 345°
2026-05-06 12:09 51.07415 -0.54052 3476 ft 194 kts
2026-05-06 12:10 51.08664 -0.53393 3420 ft 186 kts 27°
2026-05-06 12:10 51.09662 -0.52164 3364 ft 182 kts 45°
2026-05-06 12:10 51.10357 -0.50477 3285 ft 185 kts 64°
2026-05-06 12:10 51.10697 -0.48501 3217 ft 186 kts 73°
2026-05-06 12:11 51.10978 -0.46496 3138 ft 185 kts 73°
2026-05-06 12:11 51.11260 -0.44502 3056 ft 185 kts 73°
2026-05-06 12:11 51.11541 -0.42510 2995 ft 184 kts 75°
2026-05-06 12:11 51.11819 -0.40529 2784 ft 183 kts 73°
2026-05-06 12:12 51.12094 -0.38564 2561 ft 181 kts 73°
2026-05-06 12:12 51.12359 -0.36665 2307 ft 170 kts 72°
2026-05-06 12:12 51.12609 -0.34879 2083 ft 160 kts 72°
2026-05-06 12:12 51.12842 -0.33210 1865 ft 149 kts 73°
2026-05-06 12:13 51.13060 -0.31652 1679 ft 141 kts 72°
2026-05-06 12:13 51.13274 -0.30129 1479 ft 142 kts 70°
2026-05-06 12:13 51.13488 -0.28592 1278 ft 141 kts 71°
2026-05-06 12:13 51.13698 -0.27077 1087 ft 138 kts 72°
2026-05-06 12:14 51.13909 -0.25573 866 ft 140 kts 70°
2026-05-06 12:14 51.14119 -0.24057 683 ft 141 kts 72°
2026-05-06 12:14 51.14330 -0.22519 487 ft 143 kts 70°
2026-05-06 12:14 51.14544 -0.20975 295 ft 142 kts 71°
2026-05-06 12:15 51.14746 -0.19501 214 ft 127 kts 71°
2026-05-06 12:15 51.14903 -0.18391 212 ft 68 kts 77°
2026-05-06 12:15 51.14979 -0.17969 213 ft 26 kts 60°
2026-05-06 12:15 51.15057 -0.17793 217 ft 12 kts 51°
2026-05-06 12:16 51.15076 -0.17762 205 ft 0 kts 39°
2026-05-06 12:16 51.15077 -0.17762 205 ft 0 kts 39°
2026-05-06 12:16 51.15079 -0.17760 205 ft 2 kts 34°
2026-05-06 12:16 51.15128 -0.17759 205 ft 11 kts 354°
2026-05-06 12:17 51.15208 -0.17773 211 ft 13 kts 353°
2026-05-06 12:17 51.15266 -0.17698 208 ft 13 kts 76°
2026-05-06 12:17 51.15291 -0.17525 209 ft 20 kts 76°
2026-05-06 12:17 51.15338 -0.17371 210 ft 14 kts 14°
2026-05-06 12:18 51.15444 -0.17401 204 ft 16 kts 349°
2026-05-06 12:18 51.15463 -0.17408 204 ft 0 kts 347°
2026-05-06 12:18 51.15464 -0.17408 204 ft 1 kts 347°
2026-05-06 12:18 51.15469 -0.17410 204 ft 1 kts 347°
2026-05-06 12:19 51.15507 -0.17424 204 ft 10 kts 347°
2026-05-06 12:19 51.15541 -0.17479 210 ft 12 kts 280°
2026-05-06 12:19 51.15534 -0.17592 204 ft 6 kts 297°
2026-05-06 12:19 51.15573 -0.17614 208 ft 3 kts 347°
2026-05-06 12:20 51.15588 -0.17620 204 ft 1 kts 348°
2026-05-06 12:20 51.15591 -0.17621 204 ft 0 kts 348°